Wetterdaten: aktuell Sonntag, 26.06.2022 01:32
Datum Zeit Temperatur Bodentemp. Luftfeuchte Luftdruck Regen Sonnenschein
26.06.2022 01:32 16,3 C 17,1 C 75 % 1012 hPa 0,0 l/m 0 min
26.06.2022 01:27 16,3 C 17,2 C 75 % 1012 hPa 0,0 l/m 0 min
26.06.2022 01:21 16,3 C 17,2 C 75 % 1012 hPa 0,0 l/m 0 min
26.06.2022 01:16 16,5 C 17,3 C 75 % 1012 hPa 0,0 l/m 0 min
26.06.2022 01:12 16,5 C 17,3 C 75 % 1012 hPa 0,0 l/m 0 min
26.06.2022 01:06 16,5 C 17,4 C 75 % 1012 hPa 0,0 l/m 0 min
26.06.2022 01:01 16,5 C 17,5 C 75 % 1012 hPa 0,0 l/m 0 min
26.06.2022 00:57 16,6 C 17,7 C 75 % 1012 hPa 0,0 l/m 0 min
26.06.2022 00:52 16,7 C 17,6 C 76 % 1012 hPa 0,0 l/m 0 min
26.06.2022 00:46 16,7 C 17,7 C 76 % 1012 hPa 0,0 l/m 0 min
26.06.2022 00:41 16,8 C 17,7 C 76 % 1012 hPa 0,0 l/m 0 min
26.06.2022 00:37 16,8 C 17,8 C 76 % 1012 hPa 0,0 l/m 0 min
26.06.2022 00:32 16,8 C 17,8 C 77 % 1012 hPa 0,0 l/m 0 min
26.06.2022 00:26 16,8 C 17,8 C 77 % 1012 hPa 0,0 l/m 0 min
26.06.2022 00:21 16,8 C 18,0 C 77 % 1012 hPa 0,0 l/m 0 min
26.06.2022 00:17 16,8 C 18,0 C 77 % 1012 hPa 0,0 l/m 0 min
26.06.2022 00:12 16,9 C 18,0 C 77 % 1012 hPa 0,0 l/m 0 min
26.06.2022 00:06 16,9 C 18,0 C 77 % 1012 hPa 0,0 l/m 0 min
26.06.2022 00:02 17,2 C 18,1 C 76 % 1012 hPa 0,0 l/m 0 min
25.06.2022 23:56 17,2 C 18,2 C 75 % 1012 hPa 0,0 l/m 0 min
25.06.2022 23:52 17,5 C 18,4 C 74 % 1012 hPa 0,0 l/m 0 min
25.06.2022 23:47 17,6 C 18,4 C 74 % 1012 hPa 0,0 l/m 0 min
25.06.2022 23:41 17,6 C 18,4 C 74 % 1012 hPa 0,0 l/m 0 min
25.06.2022 23:36 17,6 C 18,6 C 74 % 1012 hPa 0,0 l/m 0 min
25.06.2022 23:32 17,8 C 18,6 C 74 % 1012 hPa 0,0 l/m 0 min
25.06.2022 23:27 17,8 C 18,8 C 74 % 1012 hPa 0,0 l/m 0 min
25.06.2022 23:21 17,9 C 18,9 C 75 % 1012 hPa 0,0 l/m 0 min
25.06.2022 23:16 18,1 C 19,1 C 75 % 1012 hPa 0,0 l/m 0 min
25.06.2022 23:12 18,1 C 19,1 C 75 % 1012 hPa 0,0 l/m 0 min
25.06.2022 23:07 18,1 C 19,2 C 75 % 1012 hPa 0,0 l/m 0 min
25.06.2022 23:01 18,3 C 19,2 C 74 % 1012 hPa 0,0 l/m 0 min
25.06.2022 22:57 18,5 C 19,3 C 75 % 1012 hPa 0,0 l/m 0 min
25.06.2022 22:52 18,7 C 19,5 C 77 % 1012 hPa 0,0 l/m 0 min
25.06.2022 22:46 18,7 C 19,7 C 77 % 1012 hPa 0,0 l/m 0 min
25.06.2022 22:41 18,7 C 19,7 C 77 % 1012 hPa 0,0 l/m 0 min
25.06.2022 22:37 19,1 C 19,7 C 77 % 1012 hPa 0,0 l/m 0 min
25.06.2022 22:32 19,1 C 20,0 C 75 % 1012 hPa 0,0 l/m 0 min
25.06.2022 22:26 19,6 C 20,0 C 73 % 1012 hPa 0,0 l/m 0 min
25.06.2022 22:21 19,6 C 20,1 C 73 % 1012 hPa 0,0 l/m 0 min
25.06.2022 22:17 19,6 C 20,2 C 73 % 1012 hPa 0,0 l/m 0 min
25.06.2022 22:12 19,8 C 20,3 C 72 % 1012 hPa 0,0 l/m 0 min
25.06.2022 22:06 20,1 C 20,3 C 71 % 1012 hPa 0,0 l/m 0 min
25.06.2022 22:01 20,1 C 20,5 C 71 % 1012 hPa 0,0 l/m 0 min
25.06.2022 21:57 20,4 C 20,5 C 60 % 1012 hPa 0,0 l/m 0 min
25.06.2022 21:51 20,4 C 20,6 C 60 % 1012 hPa 0,0 l/m 0 min
25.06.2022 21:46 20,4 C 20,8 C 60 % 1012 hPa 0,0 l/m 0 min
25.06.2022 21:42 21,1 C 20,9 C 57 % 1012 hPa 0,0 l/m 0 min
25.06.2022 21:37 21,1 C 21,1 C 57 % 1012 hPa 0,0 l/m 0 min
25.06.2022 21:31 21,6 C 21,1 C 54 % 1011 hPa 0,0 l/m 0 min
_ Min-Zeit 05:17 05:37 14:41 02:01 - -
Minimum _ 14,5 C 15,8 C 20 % 1010 hPa - -
_ Max-Zeit 15:41 14:37 06:36 07:51 02:01 02:01
Maximum _ 28,0 C 25,1 C 99 % 1013 hPa 0,0 l/m 0 min
Durchschnitt _ 21,5 C 20,5 C 59 % 1011 hPa #0,0 l/m #0 min.